[[{"header":{"parameterUnit":"m.s-1","parameterCategory":2,"la1":30.2991,"la2":30.254,"lo1":-89.0895,"lo2":-89.0444,"dy":0.0017,"dx":0.0017,"nx":28,"ny":28,"refTime":"2024-04-13T03:00:00:Z","depth":"0","parameterNumber":2,"parameterNumberName":"U-component_of_CURRENTS"},"data":[0,0,0,0,0,0,0,0,0,0,0,0,0,0,0,0,0,0,0,0,0,0,0,0,0,0,0,0,0,0,0,0,0,0,0,0,0,0,0,0,0,0,0,0,0,0,0,0,0,0,0,0,0,0,0,0,0,0,-0.3351,-0.3351,0,-0.3391,-0.3391,-0.3391,-0.3372,-0.3372,-0.3371,-0.3371,-0.3278,-0.3276,-0.3274,0,0,0,0,0,0,0,0,0,0,0,0,0,-0.3241,-0.3243,-0.3351,-0.3352,-0.3352,-0.3391,-0.3391,-0.3391,-0.3373,-0.3372,-0.3371,-0.337,-0.3279,-0.3276,-0.3274,0,0,0,0,0,0,0,0,0,0,0,0,0,-0.3281,-0.3243,-0.3351,-0.3351,-0.3352,-0.3391,-0.3391,-0.3391,-0.3373,-0.3372,-0.3371,-0.337,-0.3279,-0.3276,-0.3274,-0.3275,0,0,-0.3265,-0.3264,0,0,0,0,0,0,0,0,-0.3279,-0.3285,-0.335,-0.3351,-0.3352,-0.3379,-0.3318,-0.3347,-0.3373,-0.336,-0.3371,-0.337,-0.3303,-0.3298,-0.3304,-0.327,-0.3266,-0.3265,-0.3263,-0.3262,-0.3261,0,0,0,0,0,0,0,-0.3276,-0.3283,-0.3362,-0.3351,-0.3352,-0.3344,-0.3348,-0.3324,-0.333,-0.3361,-0.3361,-0.3373,-0.3302,-0.3307,-0.3301,-0.3265,-0.3265,-0.3262,-0.3261,-0.3259,-0.3223,-0.3224,0,0,0,0,0,0,-0.3282,-0.3281,-0.3361,-0.3364,-0.3317,-0.3347,-0.3351,-0.3368,-0.3334,-0.333,-0.3373,-0.3372,-0.3312,-0.3304,-0.3297,-0.3238,-0.3262,-0.3259,-0.3258,-0.3222,-0.3223,-0.3224,0,0,0,0,0,0,-0.328,-0.3289,-0.3359,-0.3326,-0.3335,-0.335,-0.3369,-0.3369,-0.3369,-0.3345,-0.3338,-0.3372,-0.3311,-0.3301,-0.3278,-0.3236,-0.3258,-0.3255,-0.3221,-0.3222,-0.3223,-0.3157,0,0,0,0,0,0,-0.3277,-0.3288,-0.3281,-0.3327,-0.3337,-0.3364,-0.337,-0.3371,-0.338,-0.3377,-0.3341,-0.3332,-0.3309,-0.3283,-0.3275,-0.3233,-0.3253,-0.322,-0.3222,-0.3223,-0.3158,-0.3155,-0.3153,0,0,0,0,0,-0.3273,-0.327,-0.3281,-0.3289,-0.3334,-0.3364,-0.3367,-0.3372,-0.3381,-0.337,-0.3362,-0.3333,-0.3286,-0.3281,-0.3272,-0.3228,-0.322,-0.3221,-0.3223,-0.3159,-0.3156,-0.3153,0,0,0,0,0,0,-0.3196,-0.327,-0.3282,-0.3294,-0.3321,-0.3362,-0.3355,-0.3374,-0.3364,-0.3358,-0.3339,-0.3329,-0.3289,-0.329,-0.3285,-0.3231,-0.3249,-0.3249,-0.3204,-0.3201,-0.3198,-0.3164,-0.3251,0,0,0,0,0,-0.3185,-0.3209,-0.3267,-0.3268,-0.3289,-0.3325,-0.3334,-0.3346,-0.3358,-0.3353,-0.3331,-0.3316,-0.3293,-0.3273,-0.3252,-0.3223,-0.3213,-0.3196,-0.3194,-0.3191,-0.3164,-0.3146,-0.3137,-0.3229,-0.3229,-0.3229,0,0,-0.3151,-0.3196,-0.3203,-0.3254,-0.3278,-0.3273,-0.3326,-0.3343,-0.3319,-0.3342,-0.3292,-0.3299,-0.3288,-0.3248,-0.3231,-0.3237,-0.3163,-0.3193,-0.319,-0.3164,-0.3146,-0.3137,-0.3128,-0.323,-0.323,-0.323,0,0,-0.308,-0.3144,-0.3126,-0.3158,-0.3202,-0.3235,-0.3241,-0.3282,-0.3281,-0.3261,-0.3269,-0.3255,-0.3225,-0.3201,-0.3188,-0.3167,-0.3152,-0.3177,-0.3122,-0.3106,-0.3097,-0.3088,-0.3062,-0.3052,-0.3173,-0.3173,-0.3173,0,-0.302,-0.3034,-0.3118,-0.3107,-0.3133,-0.3213,-0.3194,-0.3202,-0.3218,-0.3227,-0.3229,-0.3211,-0.3188,-0.3149,-0.3134,-0.3148,-0.315,-0.3124,-0.3097,-0.3089,-0.3081,-0.3057,-0.3046,-0.317,-0.3171,-0.3171,-0.3171,0,-0.2926,-0.2949,-0.295,-0.2972,-0.2999,-0.3016,-0.3063,-0.3074,-0.3102,-0.3116,-0.3104,-0.3097,-0.3092,-0.3084,-0.3086,-0.3038,-0.306,-0.3093,-0.3091,-0.3067,-0.3044,-0.3034,-0.3166,-0.3167,-0.3168,-0.3169,0,0,-0.2762,-0.2865,-0.2859,-0.2891,-0.2953,-0.2978,-0.2961,-0.2992,-0.3001,-0.2998,-0.2995,-0.2951,-0.299,-0.298,-0.3,-0.2971,-0.2907,-0.3004,-0.3005,-0.2952,-0.2869,-0.2796,-0.2779,-0.2947,-0.2945,-0.2943,-0.2872,0,-0.2659,-0.2662,-0.2723,-0.2722,-0.2753,-0.2847,-0.2838,-0.2875,-0.2913,-0.2926,-0.2938,-0.2934,-0.294,-0.2952,-0.292,-0.293,-0.288,-0.2923,-0.2921,-0.292,-0.2836,-0.2764,-0.2643,-0.2562,-0.2862,-0.2861,-0.286,0,-0.2535,-0.2578,-0.258,-0.2693,-0.2708,-0.2701,-0.2781,-0.278,-0.2826,-0.2856,-0.2868,-0.29,-0.2864,-0.288,-0.283,-0.2869,-0.2842,-0.2834,-0.2833,-0.2772,-0.2827,-0.2638,-0.2533,-0.2511,-0.2845,-0.2846,-0.2847,0,-0.244,-0.2485,-0.2513,-0.2542,-0.2644,-0.2657,-0.2697,-0.2756,-0.2777,-0.2817,-0.2835,-0.2835,-0.283,-0.2806,-0.2785,-0.2814,-0.2729,-0.2779,-0.2675,-0.2671,-0.2565,-0.2554,-0.2408,-0.2699,-0.27,-0.27,-0.27,0,-0.2359,-0.2373,-0.2479,-0.2501,-0.252,-0.2608,-0.2623,-0.2672,-0.2725,-0.2738,-0.2793,-0.2791,-0.281,-0.2784,-0.2765,-0.2676,-0.2711,-0.2622,-0.263,-0.2541,-0.2529,-0.2506,-0.2562,-0.2697,-0.2698,-0.2698,-0.2699,0,-0.2265,-0.2338,-0.2373,-0.2468,-0.249,-0.2502,-0.2575,-0.2589,-0.2656,-0.2671,-0.268,-0.2739,-0.2706,-0.2704,-0.2665,-0.2631,-0.2525,-0.253,-0.2416,-0.2409,-0.2288,-0.2347,-0.2234,-0.2169,-0.2396,-0.2394,-0.2392,0,-0.2223,-0.2239,-0.2326,-0.2338,-0.2376,-0.2412,-0.2436,-0.2531,-0.2553,-0.2629,-0.2624,-0.2624,-0.2587,-0.2508,-0.2448,-0.2368,-0.2405,-0.2232,-0.2239,-0.2213,-0.2287,-0.2341,-0.2299,-0.2083,-0.2078,-0.2075,-0.2072,0,-0.213,-0.2164,-0.22,-0.2229,-0.2254,-0.2283,-0.233,-0.2338,-0.2442,-0.2457,-0.2466,-0.2444,-0.2383,-0.2257,-0.2177,-0.2127,-0.2179,-0.2152,-0.2151,-0.202,-0.2044,-0.2009,-0.2214,-0.2039,-0.2042,-0.2045,-0.2047,-0.2048,-0.2037,-0.2037,-0.2082,-0.2097,-0.2126,-0.2132,-0.2097,-0.2158,-0.2163,-0.216,-0.2248,-0.2182,-0.2141,-0.1996,-0.1935,-0.1809,-0.1913,-0.1777,-0.1848,-0.1903,-0.1826,-0.1944,-0.1772,-0.1774,-0.1775,-0.1777,-0.1778,0,-0.1917,-0.1934,-0.1943,-0.1956,-0.1924,-0.1989,-0.2001,-0.1942,-0.1889,-0.1941,-0.1912,-0.189,-0.1751,-0.173,-0.1625,-0.1546,-0.1513,-0.153,-0.1575,-0.1544,-0.1641,-0.1611,-0.1365,-0.1365,-0.1365,-0.1365,-0.1365,-0.1365,-0.1851,-0.1823,-0.184,-0.175,-0.1745,-0.1648,-0.1617,-0.1563,-0.1561,-0.1503,-0.1522,-0.1576,-0.1598,-0.1697,-0.1559,-0.1467,-0.1454,-0.14,-0.1454,-0.154,-0.1569,-0.1597,-0.1575,-0.1326,-0.1326,-0.1262,-0.1262,-0.1262]},{"header":{"parameterUnit":"m.s-1","parameterCategory":2,"la1":30.2991,"la2":30.254,"lo1":-89.0895,"lo2":-89.0444,"dy":0.0017,"dx":0.0017,"nx":28,"ny":28,"refTime":"2024-04-13T03:00:00:Z","depth":"0","parameterNumber":3,"parameterNumberName":"V-component_of_CURRENTS"},"data":[0,0,0,0,0,0,0,0,0,0,0,0,0,0,0,0,0,0,0,0,0,0,0,0,0,0,0,0,0,0,0,0,0,0,0,0,0,0,0,0,0,0,0,0,0,0,0,0,0,0,0,0,0,0,0,0,0,0,-0.0245,-0.0243,0,-0.0076,-0.0074,-0.0072,0.0012,0.0012,0.0012,0.0011,0.0226,0.0232,0.0237,0,0,0,0,0,0,0,0,0,0,0,0,0,-0.041,-0.0408,-0.0245,-0.0243,-0.0241,-0.0076,-0.0074,-0.0071,0.0012,0.0012,0.0011,0.0011,0.0224,0.0231,0.0238,0,0,0,0,0,0,0,0,0,0,0,0,0,-0.0298,-0.0407,-0.0246,-0.0181,-0.0174,-0.0077,-0.0074,-0.0071,0.0012,0.0012,0.0011,0.0011,0.0222,0.023,0.0239,0.0297,0,0,0.0266,0.0269,0,0,0,0,0,0,0,0,-0.0305,-0.0292,-0.0192,-0.0185,-0.0177,-0.0055,-0.0053,0.0054,0.0012,-0.0057,0.0011,0.0011,0.0135,0.0151,0.0185,0.0307,0.0316,0.0266,0.0272,0.0276,0.0278,0,0,0,0,0,0,0,-0.0313,-0.0298,-0.0177,-0.019,-0.0181,-0.0131,-0.0116,-0.0032,0.004,-0.0051,-0.0045,-0.0028,0.014,0.0176,0.0191,0.0319,0.0266,0.0274,0.0279,0.0283,0.0471,0.0471,0,0,0,0,0,0,-0.034,-0.0306,-0.0182,-0.0172,-0.0244,-0.0128,-0.0111,-0.0093,0.0039,0.0058,-0.0028,-0.0025,0.0162,0.0181,0.0199,0.0233,0.0275,0.0284,0.0289,0.0471,0.0471,0.0471,0,0,0,0,0,0,-0.0345,-0.0331,-0.0189,-0.0236,-0.0215,-0.0126,-0.0105,-0.0089,-0.0055,0.0055,0.0075,-0.0011,0.0162,0.0186,0.0258,0.0244,0.0288,0.0296,0.0471,0.0471,0.0471,0.033,0,0,0,0,0,0,-0.035,-0.0333,-0.033,-0.0238,-0.0214,-0.0144,-0.0104,-0.0086,-0.0045,-0.0039,0.0077,0.0097,0.0164,0.0245,0.0267,0.0257,0.0302,0.0472,0.0471,0.0471,0.0335,0.0325,0.0316,0,0,0,0,0,-0.0356,-0.0352,-0.0331,-0.0316,-0.0211,-0.0145,-0.0127,-0.0063,-0.0044,-0.0033,0.0038,0.0093,0.0257,0.0252,0.0278,0.027,0.0472,0.0471,0.0471,0.0339,0.0327,0.0316,0,0,0,0,0,0,-0.0419,-0.0341,-0.0315,-0.0287,-0.0228,-0.0132,-0.0114,-0.007,-0.0002,0.0,0.0099,0.0124,0.0177,0.0249,0.024,0.0323,0.0371,0.0375,0.0262,0.0251,0.0242,0.0216,0.031,0,0,0,0,0,-0.0433,-0.0412,-0.033,-0.0309,-0.0286,-0.0202,-0.0168,-0.0126,-0.0054,-0.0024,0.0053,0.0133,0.0199,0.0242,0.0313,0.037,0.0422,0.038,0.0371,0.0362,0.0359,0.0408,0.0401,0.0469,0.0469,0.0469,0,0,-0.0451,-0.0407,-0.0393,-0.0322,-0.0272,-0.025,-0.0182,-0.0139,-0.0121,-0.001,0.0035,0.0106,0.0205,0.0255,0.0286,0.0312,0.0371,0.0361,0.0353,0.0355,0.0406,0.04,0.0394,0.0468,0.0468,0.0468,0,0,-0.0483,-0.044,-0.0437,-0.0398,-0.0334,-0.0286,-0.0281,-0.0193,-0.0155,-0.0099,-0.0029,0.0028,0.0145,0.0201,0.0247,0.0235,0.0315,0.0261,0.02,0.0246,0.0241,0.0236,0.0286,0.0288,0.0261,0.026,0.026,0,-0.051,-0.0493,-0.0426,-0.0418,-0.0397,-0.0313,-0.0313,-0.0261,-0.0164,-0.0134,-0.0107,0.0037,0.0114,0.0171,0.0161,0.0211,0.0255,0.0228,0.0231,0.0228,0.0226,0.0279,0.0282,0.0253,0.0254,0.0255,0.0256,0,-0.0538,-0.053,-0.0527,-0.0496,-0.0466,-0.0449,-0.0381,-0.0344,-0.0294,-0.0237,-0.017,-0.0071,0.0015,0.0042,0.0101,0.0128,0.0168,0.0204,0.0249,0.021,0.0269,0.0275,0.0244,0.0246,0.0248,0.025,0,0,-0.0579,-0.0554,-0.0555,-0.0563,-0.0507,-0.0487,-0.0462,-0.0408,-0.0392,-0.0309,-0.0279,-0.0181,-0.0124,-0.0069,0.0009,0.0051,0.0069,0.0114,0.0119,0.0145,0.0174,0.0237,0.0251,0.0102,0.0102,0.0102,0.0217,0,-0.0622,-0.0647,-0.0611,-0.0637,-0.0644,-0.0574,-0.0558,-0.0502,-0.044,-0.0391,-0.0294,-0.0237,-0.0167,-0.0131,-0.0082,0.0041,0.008,0.0035,0.0226,0.0232,0.0277,0.0258,0.032,0.0431,0.0224,0.0225,0.0226,0,-0.0659,-0.0673,-0.071,-0.071,-0.0705,-0.0705,-0.0665,-0.0639,-0.0551,-0.05,-0.043,-0.0345,-0.026,-0.0206,-0.0039,-0.0069,0.0035,0.0121,0.0129,0.0242,0.0306,0.0442,0.0451,0.064,0.0235,0.0235,0.0234,0,-0.0726,-0.074,-0.078,-0.0779,-0.0761,-0.0759,-0.0743,-0.0672,-0.0651,-0.0571,-0.0544,-0.0427,-0.0363,-0.0229,-0.0037,-0.004,0.0146,0.0171,0.0321,0.0328,0.0448,0.0464,0.0649,0.0266,0.0266,0.0266,0.0266,0,-0.0784,-0.0813,-0.0817,-0.0839,-0.0878,-0.0834,-0.0849,-0.0805,-0.0748,-0.0732,-0.0612,-0.0563,-0.0368,-0.0227,-0.0065,0.0157,0.013,0.031,0.036,0.0402,0.0412,0.0638,0.0709,0.027,0.0269,0.0268,0.0268,0,-0.0849,-0.0851,-0.0898,-0.0906,-0.0911,-0.094,-0.093,-0.0933,-0.0867,-0.0841,-0.0821,-0.0661,-0.0461,-0.0249,-0.0011,0.0128,0.0456,0.0409,0.0448,0.05,0.0805,0.0864,0.1089,0.1209,0.0585,0.0588,0.059,0,-0.0886,-0.0917,-0.0961,-0.0998,-0.1005,-0.1035,-0.1047,-0.0999,-0.0995,-0.089,-0.0881,-0.069,-0.0528,-0.0147,0.0143,0.0442,0.0578,0.0649,0.0652,0.0834,0.0937,0.0968,0.1054,0.0759,0.0762,0.0765,0.0767,0,-0.0953,-0.0966,-0.1009,-0.1084,-0.1122,-0.1162,-0.1174,-0.1184,-0.1116,-0.1057,-0.0933,-0.0792,-0.0406,-0.0021,0.0363,0.054,0.0804,0.071,0.0897,0.1086,0.1135,0.127,0.067,0.079,0.0787,0.0786,0.0784,0.0783,-0.0997,-0.1049,-0.1101,-0.1169,-0.1221,-0.1266,-0.1279,-0.126,-0.1225,-0.109,-0.0967,-0.0689,-0.0151,0.0421,0.063,0.1083,0.1016,0.121,0.1265,0.1279,0.1401,0.0846,0.102,0.1019,0.1018,0.1017,0.1017,0,-0.105,-0.1102,-0.1178,-0.1255,-0.1315,-0.1319,-0.1341,-0.131,-0.124,-0.1056,-0.0877,-0.0265,0.0265,0.0757,0.1375,0.1621,0.1675,0.1734,0.1806,0.1867,0.1391,0.1406,0.1674,0.1674,0.1674,0.1673,0.1673,0.1673,-0.1079,-0.1163,-0.1202,-0.1309,-0.1356,-0.1389,-0.1388,-0.1308,-0.1166,-0.0792,-0.0429,-0.0142,0.055,0.1495,0.2061,0.2115,0.2339,0.2311,0.2418,0.2102,0.2057,0.2014,0.2048,0.2445,0.2446,0.2894,0.2899,0.2902]}],[{"header":{"parameterUnit":"m.s-1","parameterCategory":2,"la1":30.2991,"la2":30.254,"lo1":-89.0895,"lo2":-89.0444,"dy":0.0017,"dx":0.0017,"nx":28,"ny":28,"refTime":"2024-04-13T03:00:00:Z","depth":"2","parameterNumber":2,"parameterNumberName":"U-component_of_CURRENTS"},"data":[0,0,0,0,0,0,0,0,0,0,0,0,0,0,0,0,0,0,0,0,0,0,0,0,0,0,0,0,0,0,0,0,0,0,0,0,0,0,0,0,0,0,0,0,0,0,0,0,0,0,0,0,0,0,0,0,0,0,-0.2349,-0.235,0,-0.2401,-0.2401,-0.2401,-0.2379,-0.2378,-0.2377,-0.2376,-0.2407,-0.2409,-0.2411,0,0,0,0,0,0,0,0,0,0,0,0,0,-0.2248,-0.2249,-0.2349,-0.235,-0.235,-0.2401,-0.2401,-0.2402,-0.2379,-0.2378,-0.2376,-0.2375,-0.2407,-0.2409,-0.2411,0,0,0,0,0,0,0,0,0,0,0,0,0,-0.2292,-0.225,-0.2349,-0.2347,-0.2348,-0.2401,-0.2401,-0.2402,-0.2379,-0.2378,-0.2376,-0.2375,-0.2406,-0.2408,-0.2411,-0.2459,0,0,-0.2419,-0.2421,0,0,0,0,0,0,0,0,-0.229,-0.2296,-0.2346,-0.2347,-0.2348,-0.2384,-0.2377,-0.2421,-0.238,-0.2365,-0.2376,-0.2374,-0.24,-0.2403,-0.2413,-0.2461,-0.2462,-0.242,-0.2421,-0.2423,-0.2423,0,0,0,0,0,0,0,-0.2287,-0.2294,-0.2367,-0.2348,-0.2349,-0.235,-0.2354,-0.2385,-0.2388,-0.2366,-0.2365,-0.2375,-0.24,-0.2411,-0.2414,-0.2462,-0.242,-0.2422,-0.2424,-0.2425,-0.2543,-0.2545,0,0,0,0,0,0,-0.2287,-0.2291,-0.2365,-0.2369,-0.2317,-0.2353,-0.2358,-0.2372,-0.2388,-0.239,-0.2376,-0.2374,-0.2407,-0.2411,-0.2415,-0.246,-0.2422,-0.2425,-0.2427,-0.2542,-0.2544,-0.2545,0,0,0,0,0,0,-0.2285,-0.2293,-0.2363,-0.2332,-0.2342,-0.2357,-0.2373,-0.2374,-0.2393,-0.2397,-0.2398,-0.2396,-0.2406,-0.2411,-0.2458,-0.2461,-0.2426,-0.2429,-0.254,-0.2542,-0.2544,-0.2558,0,0,0,0,0,0,-0.2281,-0.2292,-0.2295,-0.2333,-0.2344,-0.2404,-0.2375,-0.2376,-0.2403,-0.24,-0.2414,-0.2415,-0.2405,-0.2454,-0.246,-0.2464,-0.2431,-0.2538,-0.2541,-0.2544,-0.2556,-0.2561,-0.2565,0,0,0,0,0,-0.2278,-0.23,-0.2295,-0.2304,-0.235,-0.2406,-0.2412,-0.2415,-0.2405,-0.2425,-0.2436,-0.2415,-0.2475,-0.2458,-0.2465,-0.247,-0.2537,-0.254,-0.2543,-0.2554,-0.256,-0.2565,0,0,0,0,0,0,-0.2255,-0.2301,-0.2296,-0.2329,-0.2365,-0.2403,-0.2418,-0.2431,-0.2456,-0.2448,-0.2449,-0.2452,-0.2486,-0.2493,-0.2474,-0.2514,-0.2498,-0.2503,-0.2503,-0.2509,-0.2513,-0.2482,-0.2433,0,0,0,0,0,-0.2253,-0.228,-0.2324,-0.2348,-0.2367,-0.2396,-0.2416,-0.2426,-0.2457,-0.2466,-0.2478,-0.2491,-0.2508,-0.252,-0.2536,-0.2576,-0.2554,-0.2581,-0.2586,-0.2589,-0.2571,-0.2561,-0.2562,-0.2556,-0.2556,-0.2556,0,0,-0.225,-0.2278,-0.2292,-0.2345,-0.2366,-0.2399,-0.2404,-0.2445,-0.2463,-0.2468,-0.2496,-0.2512,-0.2524,-0.2552,-0.2568,-0.2558,-0.2582,-0.2594,-0.2596,-0.2576,-0.2565,-0.2565,-0.2565,-0.2559,-0.2558,-0.2558,0,0,-0.2259,-0.2285,-0.2304,-0.2342,-0.2386,-0.241,-0.2428,-0.2476,-0.2486,-0.2533,-0.2526,-0.2549,-0.2592,-0.2587,-0.2593,-0.2641,-0.2607,-0.2651,-0.2647,-0.2639,-0.2638,-0.2637,-0.2612,-0.2608,-0.2653,-0.2653,-0.2653,0,-0.2243,-0.2276,-0.2321,-0.2351,-0.2375,-0.2417,-0.2443,-0.2472,-0.2527,-0.2537,-0.2541,-0.2587,-0.2598,-0.2616,-0.2622,-0.2645,-0.2632,-0.2622,-0.2641,-0.2639,-0.2638,-0.2612,-0.2608,-0.2654,-0.2654,-0.2653,-0.2653,0,-0.2263,-0.229,-0.2313,-0.2355,-0.2395,-0.2431,-0.2478,-0.2511,-0.2532,-0.2553,-0.2587,-0.2608,-0.2627,-0.264,-0.2643,-0.2646,-0.2636,-0.2645,-0.2617,-0.2639,-0.2611,-0.2607,-0.2655,-0.2655,-0.2654,-0.2654,0,0,-0.2208,-0.2303,-0.2303,-0.2325,-0.2398,-0.2432,-0.2475,-0.2519,-0.2538,-0.2579,-0.2596,-0.2624,-0.2631,-0.2638,-0.2649,-0.2641,-0.2623,-0.2638,-0.2637,-0.2594,-0.259,-0.2507,-0.2494,-0.2637,-0.2636,-0.2636,-0.2574,0,-0.2194,-0.2247,-0.2299,-0.2343,-0.2374,-0.2434,-0.2472,-0.252,-0.2556,-0.2589,-0.2605,-0.2629,-0.2634,-0.2643,-0.2637,-0.2635,-0.2612,-0.2638,-0.2591,-0.2589,-0.2497,-0.2486,-0.2304,-0.2228,-0.257,-0.2569,-0.2568,0,-0.2172,-0.2215,-0.2259,-0.2339,-0.2356,-0.239,-0.2451,-0.2491,-0.2549,-0.2577,-0.2602,-0.2624,-0.2628,-0.2628,-0.2606,-0.2625,-0.2596,-0.2586,-0.2584,-0.2491,-0.2496,-0.2264,-0.2206,-0.256,-0.2561,-0.2562,-0.2562,0,-0.2099,-0.2177,-0.2209,-0.2238,-0.2339,-0.2363,-0.2407,-0.2478,-0.2507,-0.2562,-0.2583,-0.2606,-0.261,-0.2594,-0.2574,-0.2591,-0.2535,-0.256,-0.2452,-0.2446,-0.2269,-0.2248,-0.2515,-0.2515,-0.2515,-0.2515,-0.2515,0,-0.2059,-0.208,-0.2179,-0.22,-0.2232,-0.2318,-0.2351,-0.2406,-0.2473,-0.2497,-0.256,-0.2572,-0.2599,-0.2583,-0.2563,-0.2482,-0.2523,-0.2427,-0.2417,-0.2271,-0.2252,-0.2529,-0.2531,-0.2513,-0.2513,-0.2514,-0.2514,0,-0.1976,-0.2043,-0.2082,-0.2177,-0.2203,-0.2223,-0.231,-0.2334,-0.2412,-0.2444,-0.2458,-0.2531,-0.2509,-0.2511,-0.2482,-0.2448,-0.2397,-0.2352,-0.217,-0.2139,-0.2316,-0.232,-0.2226,-0.2223,-0.222,-0.2217,-0.2215,0,-0.194,-0.1954,-0.2041,-0.2057,-0.2098,-0.2145,-0.2177,-0.2281,-0.2314,-0.2408,-0.2412,-0.2424,-0.2394,-0.2327,-0.2263,-0.2183,-0.2286,-0.1994,-0.1988,-0.2282,-0.2283,-0.2292,-0.2301,-0.1764,-0.1758,-0.1754,-0.175,0,-0.1859,-0.1889,-0.1921,-0.196,-0.1993,-0.2031,-0.2089,-0.2106,-0.222,-0.2246,-0.2268,-0.2249,-0.2192,-0.2032,-0.195,-0.1896,-0.1999,-0.1897,-0.2233,-0.1873,-0.1843,-0.1846,-0.187,-0.1709,-0.1713,-0.1716,-0.1718,-0.172,-0.1777,-0.1777,-0.1819,-0.1843,-0.188,-0.1896,-0.1874,-0.1942,-0.1959,-0.1967,-0.2052,-0.1963,-0.1954,-0.1717,-0.1621,-0.1556,-0.1703,-0.1651,-0.1667,-0.1687,-0.1652,-0.1619,-0.1435,-0.1437,-0.1439,-0.1441,-0.1443,0,-0.1672,-0.1687,-0.1701,-0.1721,-0.1702,-0.1769,-0.1795,-0.1746,-0.1706,-0.1739,-0.1711,-0.1528,-0.1402,-0.1397,-0.1213,-0.1184,-0.1184,-0.1154,-0.1158,-0.1198,-0.1235,-0.1179,-0.0835,-0.0833,-0.0832,-0.083,0,0,-0.1615,-0.1591,-0.1604,-0.1537,-0.1543,-0.147,-0.1447,-0.14,-0.1387,-0.1301,-0.1254,-0.1332,-0.1355,-0.1103,-0.1038,-0.0904,-0.1046,-0.0857,-0.1342,-0.1386,-0.1421,-0.1515,-0.1473,0,0,0,0,0]},{"header":{"parameterUnit":"m.s-1","parameterCategory":2,"la1":30.2991,"la2":30.254,"lo1":-89.0895,"lo2":-89.0444,"dy":0.0017,"dx":0.0017,"nx":28,"ny":28,"refTime":"2024-04-13T03:00:00:Z","depth":"2","parameterNumber":3,"parameterNumberName":"V-component_of_CURRENTS"},"data":[0,0,0,0,0,0,0,0,0,0,0,0,0,0,0,0,0,0,0,0,0,0,0,0,0,0,0,0,0,0,0,0,0,0,0,0,0,0,0,0,0,0,0,0,0,0,0,0,0,0,0,0,0,0,0,0,0,0,-0.023,-0.023,0,-0.0141,-0.014,-0.0139,-0.007,-0.007,-0.0069,-0.0069,0.0069,0.0072,0.0075,0,0,0,0,0,0,0,0,0,0,0,0,0,-0.0297,-0.0297,-0.0231,-0.023,-0.0229,-0.0141,-0.014,-0.0139,-0.007,-0.007,-0.0069,-0.0068,0.0068,0.0071,0.0075,0,0,0,0,0,0,0,0,0,0,0,0,0,-0.0243,-0.0296,-0.0231,-0.0185,-0.018,-0.0142,-0.014,-0.0138,-0.007,-0.007,-0.0069,-0.0068,0.0066,0.0071,0.0076,0.0088,0,0,0.009,0.0092,0,0,0,0,0,0,0,0,-0.0246,-0.0241,-0.0193,-0.0188,-0.0182,-0.0117,-0.0113,-0.0061,-0.0071,-0.0111,-0.0069,-0.0068,0.001,0.0019,0.0035,0.0095,0.0101,0.009,0.0093,0.0095,0.0097,0,0,0,0,0,0,0,-0.025,-0.0244,-0.0194,-0.0192,-0.0185,-0.0153,-0.0145,-0.0103,-0.0054,-0.0107,-0.0102,-0.0094,0.0013,0.003,0.0039,0.0103,0.009,0.0095,0.0097,0.0099,0.0198,0.0198,0,0,0,0,0,0,-0.0267,-0.0248,-0.0197,-0.0191,-0.0214,-0.0153,-0.0144,-0.0138,-0.0056,-0.0043,-0.0095,-0.0092,0.0022,0.0033,0.0044,0.0074,0.0095,0.01,0.0102,0.0198,0.0198,0.0197,0,0,0,0,0,0,-0.0269,-0.0263,-0.02,-0.0218,-0.0208,-0.0153,-0.0147,-0.0137,-0.0117,-0.0047,-0.0033,-0.0087,0.0023,0.0037,0.008,0.0079,0.0102,0.0106,0.0198,0.0198,0.0198,0.0127,0,0,0,0,0,0,-0.0271,-0.0265,-0.0269,-0.022,-0.0208,-0.0185,-0.0147,-0.0135,-0.0114,-0.0109,-0.0035,-0.0022,0.0025,0.0073,0.0085,0.0086,0.011,0.0198,0.0198,0.0198,0.013,0.0124,0.012,0,0,0,0,0,-0.0274,-0.0288,-0.027,-0.0264,-0.0215,-0.0185,-0.0177,-0.0133,-0.0115,-0.0112,-0.0061,-0.0024,0.0079,0.0076,0.0091,0.0093,0.0199,0.0198,0.0198,0.0132,0.0125,0.012,0,0,0,0,0,0,-0.0321,-0.0281,-0.026,-0.0262,-0.0228,-0.0174,-0.0172,-0.0141,-0.0099,-0.0094,-0.0026,-0.0009,0.0027,0.0068,0.0063,0.012,0.0145,0.0147,0.009,0.0084,0.0079,0.0066,0.0114,0,0,0,0,0,-0.0334,-0.0332,-0.0287,-0.0287,-0.0276,-0.0225,-0.0209,-0.0179,-0.0135,-0.0116,-0.0064,-0.001,0.0035,0.0064,0.0108,0.014,0.0182,0.015,0.0145,0.0141,0.0139,0.0199,0.0199,0.0196,0.0196,0.0196,0,0,-0.0353,-0.0331,-0.0329,-0.0297,-0.0269,-0.0261,-0.0213,-0.0196,-0.0181,-0.0108,-0.0077,-0.0028,0.0038,0.0073,0.0094,0.0109,0.0163,0.014,0.0136,0.0137,0.0198,0.0199,0.0199,0.0195,0.0196,0.0196,0,0,-0.0391,-0.037,-0.0381,-0.0359,-0.0324,-0.0293,-0.0292,-0.0242,-0.0212,-0.0177,-0.0122,-0.0073,-0.0007,0.0045,0.008,0.0074,0.0131,0.0084,0.0056,0.0113,0.0114,0.0115,0.0162,0.0169,0.0087,0.0087,0.0087,0,-0.0415,-0.0418,-0.0379,-0.0382,-0.0372,-0.0314,-0.0322,-0.0285,-0.0224,-0.0199,-0.0178,-0.0074,-0.0018,0.0037,0.0037,0.0064,0.01,0.0072,0.0106,0.0109,0.0111,0.016,0.0167,0.0083,0.0084,0.0084,0.0084,0,-0.0454,-0.0458,-0.0464,-0.0448,-0.0432,-0.0431,-0.0379,-0.0352,-0.0312,-0.0267,-0.0209,-0.0131,-0.0067,-0.0042,-0.0001,0.0044,0.0064,0.0088,0.0119,0.0107,0.0159,0.0168,0.0078,0.008,0.0081,0.0082,0,0,-0.0507,-0.0496,-0.0499,-0.0504,-0.0467,-0.0461,-0.0436,-0.0394,-0.0375,-0.0309,-0.0274,-0.0189,-0.0143,-0.0102,-0.0041,0.0014,0.0064,0.0052,0.0057,0.0094,0.0183,0.021,0.0223,0.0092,0.0094,0.0095,0.0209,0,-0.0548,-0.0579,-0.0554,-0.0579,-0.059,-0.0533,-0.0515,-0.0467,-0.0413,-0.0364,-0.0271,-0.0222,-0.0167,-0.0137,-0.0074,0.0031,0.0086,0.0031,0.0194,0.0199,0.022,0.0234,0.0212,0.0313,0.0219,0.022,0.0221,0,-0.0592,-0.0607,-0.0644,-0.0642,-0.0641,-0.0641,-0.0603,-0.058,-0.0492,-0.0446,-0.0374,-0.0301,-0.0206,-0.0163,0.0007,-0.0034,0.0065,0.0146,0.0153,0.021,0.0243,0.0312,0.0334,0.0237,0.0236,0.0235,0.0234,0,-0.065,-0.0668,-0.0703,-0.0704,-0.069,-0.0687,-0.0673,-0.0606,-0.0584,-0.0499,-0.0471,-0.035,-0.0285,-0.0152,0.0019,0.0013,0.0206,0.0223,0.034,0.0343,0.0373,0.0376,0.0339,0.0339,0.0338,0.0338,0.0338,0,-0.0703,-0.073,-0.0736,-0.0755,-0.0789,-0.0753,-0.0763,-0.0722,-0.0662,-0.0638,-0.0524,-0.047,-0.0279,-0.0143,0.0005,0.0203,0.0199,0.034,0.0379,0.0347,0.0346,0.032,0.0316,0.0342,0.0341,0.0341,0.034,0,-0.0758,-0.0762,-0.0805,-0.0813,-0.0818,-0.0844,-0.0836,-0.0834,-0.077,-0.0733,-0.071,-0.0552,-0.0365,-0.0168,0.0066,0.0185,0.037,0.044,0.0384,0.0414,0.0469,0.046,0.0579,0.0581,0.0582,0.0584,0.0585,0,-0.0791,-0.0819,-0.086,-0.0894,-0.0902,-0.093,-0.094,-0.0894,-0.0884,-0.0776,-0.0758,-0.0577,-0.0426,-0.0079,0.0169,0.0433,0.0433,0.0548,0.0538,0.047,0.0496,0.0484,0.0474,0.055,0.0551,0.0551,0.0552,0,-0.0851,-0.0863,-0.09,-0.097,-0.1003,-0.1039,-0.1048,-0.1052,-0.0983,-0.0919,-0.0795,-0.0665,-0.0331,-0.003,0.0298,0.0443,0.0502,0.057,0.0534,0.0485,0.0451,0.0473,0.0462,0.0558,0.0557,0.0557,0.0557,0.0556,-0.089,-0.0935,-0.0982,-0.1045,-0.109,-0.1127,-0.1139,-0.1115,-0.1073,-0.0943,-0.0823,-0.0585,-0.0313,0.0176,0.04,0.06,0.0595,0.0647,0.0642,0.0636,0.0605,0.0575,0.07,0.07,0.07,0.07,0.07,0,-0.0938,-0.0983,-0.1051,-0.112,-0.1173,-0.1177,-0.119,-0.116,-0.1087,-0.0923,-0.0757,-0.043,-0.0095,0.0183,0.0513,0.0699,0.0675,0.0719,0.0657,0.065,0.0645,0.0611,0.0709,0.0709,0.071,0.071,0,0,-0.0965,-0.1038,-0.1072,-0.1167,-0.1211,-0.1242,-0.1239,-0.1161,-0.1035,-0.0844,-0.0647,-0.0395,-0.0063,0.0176,0.0411,0.0575,0.0559,0.0581,0.0556,0.0449,0.0441,0.0586,0.0525,0,0,0,0,0]}],[{"header":{"parameterUnit":"m.s-1","parameterCategory":2,"la1":30.2991,"la2":30.254,"lo1":-89.0895,"lo2":-89.0444,"dy":0.0017,"dx":0.0017,"nx":28,"ny":28,"refTime":"2024-04-13T03:00:00:Z","depth":"4","parameterNumber":2,"parameterNumberName":"U-component_of_CURRENTS"},"data":[0,0,0,0,0,0,0,0,0,0,0,0,0,0,0,0,0,0,0,0,0,0,0,0,0,0,0,0,0,0,0,0,0,0,0,0,0,0,0,0,0,0,0,0,0,0,0,0,0,0,0,0,0,0,0,0,0,0,-0.1471,-0.1472,0,-0.1549,-0.1549,-0.155,-0.1569,-0.1568,-0.1568,-0.1568,-0.1653,-0.1655,-0.1658,0,0,0,0,0,0,0,0,0,0,0,0,0,-0.1369,-0.137,-0.1471,-0.1472,-0.1473,-0.1549,-0.1549,-0.155,-0.1569,-0.1568,-0.1568,-0.1568,-0.1652,-0.1655,-0.1658,0,0,0,0,0,0,0,0,0,0,0,0,0,-0.1424,-0.1371,-0.1471,-0.1493,-0.1496,-0.1548,-0.1549,-0.155,-0.1569,-0.1568,-0.1568,-0.1567,-0.1651,-0.1655,-0.1659,-0.1692,0,0,-0.167,-0.1672,0,0,0,0,0,0,0,0,-0.1421,-0.1428,-0.1489,-0.1492,-0.1495,-0.155,-0.1545,-0.1599,-0.1569,-0.1539,-0.1568,-0.1567,-0.1621,-0.1627,-0.164,-0.1696,-0.1699,-0.1671,-0.1673,-0.1675,-0.1676,0,0,0,0,0,0,0,-0.1417,-0.1425,-0.1499,-0.149,-0.1494,-0.151,-0.1517,-0.1555,-0.158,-0.1541,-0.1544,-0.1556,-0.1623,-0.1636,-0.1642,-0.1701,-0.1671,-0.1674,-0.1676,-0.1678,-0.185,-0.1852,0,0,0,0,0,0,-0.1411,-0.1421,-0.1497,-0.1502,-0.1459,-0.1512,-0.152,-0.1531,-0.158,-0.1587,-0.1556,-0.1557,-0.163,-0.1638,-0.1645,-0.1753,-0.1675,-0.1678,-0.168,-0.1847,-0.185,-0.1852,0,0,0,0,0,0,-0.1409,-0.1417,-0.1494,-0.1465,-0.1476,-0.1514,-0.1527,-0.1533,-0.1569,-0.1591,-0.1598,-0.1589,-0.163,-0.164,-0.171,-0.1754,-0.168,-0.1684,-0.1845,-0.1848,-0.1851,-0.1927,0,0,0,0,0,0,-0.1405,-0.1416,-0.1433,-0.1465,-0.1478,-0.1546,-0.1528,-0.1535,-0.1577,-0.1579,-0.1622,-0.1627,-0.163,-0.1705,-0.1714,-0.1758,-0.1687,-0.1842,-0.1846,-0.185,-0.1922,-0.1933,-0.1942,0,0,0,0,0,-0.1401,-0.1432,-0.1433,-0.1443,-0.1496,-0.1548,-0.1557,-0.158,-0.158,-0.1608,-0.164,-0.1627,-0.1737,-0.171,-0.1721,-0.1767,-0.184,-0.1845,-0.185,-0.1917,-0.1931,-0.1942,0,0,0,0,0,0,-0.1403,-0.1437,-0.1439,-0.148,-0.1518,-0.1552,-0.1587,-0.1598,-0.1646,-0.1655,-0.1664,-0.1674,-0.1749,-0.1752,-0.1721,-0.1828,-0.1784,-0.1791,-0.1832,-0.1844,-0.1854,-0.1831,-0.169,0,0,0,0,0,-0.1408,-0.1439,-0.1472,-0.1509,-0.153,-0.1561,-0.1589,-0.1608,-0.1648,-0.1668,-0.17,-0.1735,-0.1775,-0.1805,-0.1839,-0.1906,-0.1878,-0.194,-0.195,-0.1959,-0.1948,-0.1952,-0.1961,-0.1869,-0.1869,-0.1869,0,0,-0.1418,-0.1445,-0.1461,-0.1512,-0.1543,-0.1589,-0.1577,-0.1635,-0.1678,-0.1672,-0.1753,-0.1777,-0.1801,-0.1873,-0.1906,-0.1884,-0.1972,-0.1965,-0.1972,-0.1956,-0.1958,-0.1967,-0.1975,-0.1873,-0.1872,-0.1871,0,0,-0.1457,-0.148,-0.1516,-0.1554,-0.161,-0.1632,-0.1654,-0.1707,-0.1736,-0.1814,-0.1816,-0.1866,-0.194,-0.1958,-0.1976,-0.2064,-0.2025,-0.2083,-0.212,-0.2126,-0.2132,-0.2138,-0.2115,-0.2118,-0.2089,-0.2089,-0.2089,0,-0.1473,-0.1509,-0.1539,-0.1588,-0.162,-0.1655,-0.17,-0.1746,-0.1818,-0.1841,-0.1854,-0.1949,-0.1976,-0.2036,-0.2068,-0.2086,-0.207,-0.2071,-0.2136,-0.2141,-0.2146,-0.2121,-0.2123,-0.2093,-0.2093,-0.2092,-0.2092,0,-0.1526,-0.1567,-0.1599,-0.1662,-0.1707,-0.1757,-0.1812,-0.1866,-0.1905,-0.1937,-0.2015,-0.2055,-0.2097,-0.2127,-0.213,-0.2181,-0.2153,-0.2146,-0.2099,-0.2159,-0.2129,-0.213,-0.2099,-0.2098,-0.2097,-0.2095,0,0,-0.1517,-0.1613,-0.1623,-0.1653,-0.1743,-0.1779,-0.1866,-0.1928,-0.197,-0.2048,-0.2093,-0.2176,-0.218,-0.2199,-0.2211,-0.2227,-0.2254,-0.2205,-0.2204,-0.2169,-0.2247,-0.209,-0.2075,-0.226,-0.2261,-0.2261,-0.2213,0,-0.1542,-0.1623,-0.1672,-0.1751,-0.1788,-0.185,-0.192,-0.1989,-0.2046,-0.2107,-0.2149,-0.2205,-0.2213,-0.2237,-0.2258,-0.2257,-0.226,-0.2266,-0.2204,-0.2201,-0.2044,-0.2073,-0.2263,-0.2213,-0.2214,-0.2214,-0.2214,0,-0.1554,-0.1607,-0.1681,-0.1767,-0.1791,-0.1855,-0.1941,-0.2009,-0.21,-0.2144,-0.2201,-0.223,-0.2279,-0.2273,-0.229,-0.2294,-0.2272,-0.2264,-0.2262,-0.2083,-0.2045,-0.2142,-0.2214,-0.2214,-0.2214,-0.2214,-0.2214,0,-0.149,-0.1599,-0.165,-0.1686,-0.1804,-0.1854,-0.1917,-0.2017,-0.2065,-0.216,-0.2195,-0.2256,-0.2283,-0.2287,-0.2278,-0.2289,-0.2268,-0.2278,-0.211,-0.2098,-0.2219,-0.2213,-0.2268,-0.2268,-0.2268,-0.2268,-0.2268,0,-0.1462,-0.1506,-0.163,-0.1659,-0.1725,-0.1822,-0.1895,-0.197,-0.2066,-0.2109,-0.2199,-0.2225,-0.2289,-0.2289,-0.2276,-0.2179,-0.2263,-0.2101,-0.2073,-0.2254,-0.2253,-0.2219,-0.2214,-0.2266,-0.2267,-0.2267,-0.2267,0,-0.1379,-0.1461,-0.1526,-0.1654,-0.1698,-0.1744,-0.1874,-0.1917,-0.2023,-0.208,-0.2109,-0.2203,-0.2193,-0.2215,-0.2209,-0.2148,-0.2092,-0.2032,-0.2203,-0.2188,-0.1919,-0.192,-0.1841,-0.1835,-0.183,-0.1826,-0.1822,0,-0.134,-0.1367,-0.1502,-0.1539,-0.1604,-0.1691,-0.1747,-0.1878,-0.1922,-0.2044,-0.2051,-0.2088,-0.2125,-0.1977,-0.2031,-0.1963,-0.1943,-0.1903,-0.1929,-0.1893,-0.1875,-0.1883,-0.189,-0.1814,-0.1813,-0.1812,-0.181,0,-0.1261,-0.132,-0.1372,-0.1452,-0.1521,-0.1584,-0.1675,-0.1691,-0.1826,-0.1937,-0.1924,-0.1908,-0.1883,-0.1868,-0.1811,-0.1779,-0.1931,-0.185,-0.1861,-0.1886,-0.186,-0.1849,-0.1862,-0.1793,-0.1795,-0.1797,-0.1798,0,-0.1198,-0.1213,-0.1288,-0.1343,-0.1422,-0.1452,-0.1517,-0.156,-0.1615,-0.1755,-0.1743,-0.1784,-0.186,-0.1769,-0.1732,-0.1668,-0.1652,-0.1612,-0.1635,-0.1655,-0.1617,-0.1558,-0.136,0,0,0,0,0,-0.1128,-0.1134,-0.1175,-0.1229,-0.1299,-0.1344,-0.1458,-0.1526,-0.1655,-0.1592,-0.1661,-0.1627,-0.1572,-0.1605,-0.1495,-0.1648,-0.1659,-0.1517,-0.1628,-0.1695,-0.1716,-0.1688,0,0,0,0,0,0,-0.1082,-0.1116,-0.1132,-0.1117,-0.1127,-0.1193,-0.1255,-0.1346,-0.1324,-0.1453,-0.1423,-0.1519,-0.1481,-0.1586,-0.1454,-0.1461,-0.1496,-0.1552,-0.1547,-0.1684,-0.1702,-0.1719,-0.1697,0,0,0,0,0]},{"header":{"parameterUnit":"m.s-1","parameterCategory":2,"la1":30.2991,"la2":30.254,"lo1":-89.0895,"lo2":-89.0444,"dy":0.0017,"dx":0.0017,"nx":28,"ny":28,"refTime":"2024-04-13T03:00:00:Z","depth":"4","parameterNumber":3,"parameterNumberName":"V-component_of_CURRENTS"},"data":[0,0,0,0,0,0,0,0,0,0,0,0,0,0,0,0,0,0,0,0,0,0,0,0,0,0,0,0,0,0,0,0,0,0,0,0,0,0,0,0,0,0,0,0,0,0,0,0,0,0,0,0,0,0,0,0,0,0,-0.0197,-0.0197,0,-0.016,-0.016,-0.0159,-0.0122,-0.0122,-0.0121,-0.0121,-0.0043,-0.0042,-0.004,0,0,0,0,0,0,0,0,0,0,0,0,0,-0.0207,-0.0208,-0.0197,-0.0197,-0.0197,-0.016,-0.016,-0.0159,-0.0122,-0.0122,-0.0121,-0.0121,-0.0044,-0.0042,-0.004,0,0,0,0,0,0,0,0,0,0,0,0,0,-0.0189,-0.0208,-0.0197,-0.0175,-0.0172,-0.016,-0.0159,-0.0159,-0.0122,-0.0122,-0.0121,-0.0121,-0.0045,-0.0042,-0.004,-0.0036,0,0,-0.0032,-0.0031,0,0,0,0,0,0,0,0,-0.019,-0.0189,-0.0178,-0.0176,-0.0174,-0.0146,-0.0135,-0.0116,-0.0123,-0.014,-0.0121,-0.012,-0.0075,-0.007,-0.0064,-0.0032,-0.0029,-0.0032,-0.003,-0.0029,-0.0028,0,0,0,0,0,0,0,-0.0192,-0.019,-0.0182,-0.0178,-0.0175,-0.0156,-0.0153,-0.0131,-0.011,-0.0139,-0.0136,-0.0134,-0.0073,-0.0066,-0.0061,-0.0028,-0.0032,-0.003,-0.0028,-0.0027,0.0021,0.0021,0,0,0,0,0,0,-0.02,-0.0192,-0.0183,-0.0181,-0.0182,-0.0157,-0.0153,-0.0155,-0.0111,-0.0105,-0.0134,-0.0132,-0.0071,-0.0064,-0.0058,-0.0036,-0.0029,-0.0027,-0.0025,0.0021,0.0021,0.0021,0,0,0,0,0,0,-0.0201,-0.02,-0.0184,-0.0185,-0.0182,-0.0157,-0.0159,-0.0154,-0.0148,-0.0108,-0.0101,-0.0134,-0.007,-0.0062,-0.0039,-0.0033,-0.0026,-0.0023,0.0022,0.0021,0.0021,-0.0002,0,0,0,0,0,0,-0.0201,-0.0201,-0.0208,-0.0186,-0.0183,-0.0182,-0.016,-0.0154,-0.0148,-0.0145,-0.0105,-0.0097,-0.0069,-0.0043,-0.0037,-0.003,-0.0021,0.0022,0.0021,0.0021,-0.0,-0.0003,-0.0004,0,0,0,0,0,-0.0202,-0.0219,-0.0209,-0.0208,-0.0193,-0.0183,-0.0179,-0.0158,-0.0149,-0.015,-0.0121,-0.0098,-0.0042,-0.0042,-0.0034,-0.0026,0.0022,0.0022,0.0021,0.0,-0.0002,-0.0004,0,0,0,0,0,0,-0.023,-0.0216,-0.0205,-0.0217,-0.0202,-0.0177,-0.0181,-0.0164,-0.0144,-0.0142,-0.0101,-0.0092,-0.007,-0.005,-0.0051,-0.0015,-0.0006,-0.0005,-0.0025,-0.0027,-0.0029,-0.0036,-0.0019,0,0,0,0,0,-0.024,-0.0245,-0.0226,-0.0234,-0.0231,-0.0207,-0.0201,-0.0187,-0.0165,-0.0155,-0.0126,-0.0096,-0.0068,-0.0049,-0.0027,-0.0006,0.0028,0.0003,0.0001,-0.0001,-0.0003,0.006,0.0064,0.0019,0.0019,0.0019,0,0,-0.0253,-0.0246,-0.0249,-0.024,-0.0228,-0.0229,-0.0202,-0.02,-0.0192,-0.015,-0.0135,-0.0105,-0.0066,-0.0042,-0.0031,-0.0022,0.0028,-0.0002,-0.0004,-0.0004,0.006,0.0064,0.0069,0.0018,0.0019,0.0019,0,0,-0.0281,-0.0277,-0.029,-0.0281,-0.0268,-0.0252,-0.0254,-0.0231,-0.0213,-0.0196,-0.0161,-0.0125,-0.0093,-0.0052,-0.0029,-0.0029,0.0011,-0.003,-0.0037,0.0024,0.0029,0.0033,0.0077,0.0086,-0.0025,-0.0025,-0.0025,0,-0.0299,-0.031,-0.0292,-0.03,-0.0298,-0.0266,-0.0278,-0.0255,-0.0225,-0.0207,-0.0197,-0.0129,-0.0092,-0.0046,-0.0044,-0.0031,-0.0001,-0.0029,0.0023,0.0029,0.0034,0.0078,0.0088,-0.0026,-0.0026,-0.0026,-0.0026,0,-0.0331,-0.0341,-0.035,-0.0347,-0.0342,-0.0349,-0.0318,-0.0303,-0.0279,-0.025,-0.0206,-0.0151,-0.0108,-0.0088,-0.0064,-0.0012,-0.0005,0.0011,0.0032,0.0037,0.0083,0.0094,-0.0027,-0.0027,-0.0027,-0.0026,0,0,-0.0368,-0.0373,-0.0377,-0.0385,-0.037,-0.0372,-0.0355,-0.0329,-0.0316,-0.027,-0.0241,-0.0175,-0.0142,-0.0115,-0.0071,-0.0012,0.0056,0.001,0.0013,0.0057,0.0177,0.0146,0.0155,0.008,0.0082,0.0083,0.0193,0,-0.0399,-0.0432,-0.042,-0.0445,-0.0459,-0.0425,-0.0414,-0.0382,-0.0344,-0.0306,-0.0228,-0.0193,-0.0153,-0.0131,-0.0064,0.0021,0.0083,0.0023,0.0162,0.0166,0.0142,0.0166,0.0089,0.0202,0.0204,0.0206,0.0207,0,-0.0432,-0.045,-0.0486,-0.0494,-0.0497,-0.0504,-0.0482,-0.0467,-0.0398,-0.0364,-0.0302,-0.0246,-0.0156,-0.0125,0.0035,-0.0009,0.0079,0.0151,0.0157,0.0143,0.0155,0.0197,0.0227,0.0226,0.0224,0.0223,0.0222,0,-0.0467,-0.0494,-0.0528,-0.0532,-0.0533,-0.0539,-0.0537,-0.0488,-0.0473,-0.0403,-0.0379,-0.0269,-0.0213,-0.0088,0.0055,0.0048,0.023,0.0243,0.0301,0.0299,0.0305,0.0299,0.0363,0.0363,0.0362,0.0362,0.0362,0,-0.0499,-0.0527,-0.0552,-0.057,-0.0606,-0.0589,-0.0605,-0.0577,-0.0533,-0.0511,-0.0419,-0.0367,-0.0199,-0.0078,0.005,0.0202,0.0231,0.0303,0.033,0.029,0.0282,0.0313,0.0305,0.0366,0.0365,0.0364,0.0364,0,-0.0526,-0.0542,-0.0587,-0.0613,-0.0625,-0.0653,-0.0667,-0.0667,-0.0621,-0.0586,-0.0566,-0.043,-0.0271,-0.0104,0.0108,0.0188,0.0341,0.0391,0.0327,0.0347,0.037,0.0361,0.0464,0.0464,0.0464,0.0464,0.0464,0,-0.0542,-0.0568,-0.0628,-0.0664,-0.0683,-0.0721,-0.0739,-0.0714,-0.0704,-0.0617,-0.0593,-0.0445,-0.0338,-0.0057,0.0106,0.0338,0.0368,0.043,0.041,0.0368,0.0384,0.0374,0.0364,0.0464,0.0464,0.0464,0.0464,0,-0.0571,-0.0597,-0.0635,-0.0709,-0.0753,-0.0793,-0.0812,-0.0809,-0.0761,-0.0725,-0.0591,-0.0443,-0.0264,-0.0054,0.012,0.0286,0.0377,0.043,0.0431,0.0413,0.0369,0.0382,0.0373,0.0463,0.0463,0.0463,0.0463,0,-0.0593,-0.0631,-0.0685,-0.0745,-0.0807,-0.0839,-0.0849,-0.0812,-0.0789,-0.0679,-0.0634,-0.0432,-0.031,-0.0079,0.0084,0.0236,0.0272,0.0304,0.0313,0.0315,0.0229,0.0148,0.0204,0,0,0,0,0,-0.0608,-0.0649,-0.0713,-0.0777,-0.0837,-0.0864,-0.088,-0.0872,-0.0824,-0.0731,-0.0676,-0.05,-0.0242,-0.0125,0.0025,0.0062,0.0275,0.0237,0.031,0.0462,0.0462,0.0383,0,0,0,0,0,0,-0.062,-0.0682,-0.0711,-0.0785,-0.083,-0.0882,-0.0893,-0.0862,-0.0795,-0.0725,-0.0575,-0.0488,-0.0229,-0.032,0.0024,0.0068,0.0127,0.0366,0.0368,0.0462,0.0462,0.0462,0.0381,0,0,0,0,0]}]]